Regional Weather Roundup
Issued by NWS

Home | Current Version | Previous Version | Graphics & Text | Print | Product List | Glossary On
Versions: 1 2 3 4 5 6 7 8 9 10 11 12 13 14 15 16 17 18 19 20 21 22 23 24 25 26 27 28 29 30 31 32 33 34 35 36 37 38 39 40 41 42 43 44 45 46 47 48 49 50
097
ASUS45 KBOI 241210
RWRID

IDAHO REGIONAL WEATHER ROUNDUP
NATIONAL WEATHER SERVICE BOISE ID
500 AM MST FRI FEB 24 2017

NOTE: "FAIR" INDICATES FEW OR NO CLOUDS BELOW 12000 FEET
WITH NO SIGNIFICANT WEATHER AND/OR OBSTRUCTIONS TO VISIBILITY

IDZ012-014-241300-
SOUTHWEST IDAHO


CITY           SKY/WX    TMP DP  RH WIND       PRES   REMARKS
BOISE          NOT AVBL
CALDWELL       CLOUDY    28  19  69 W13       30.07R WCI  17
MOUNTAIN HOME  MOCLDY    28  19  68 W17       30.02R WCI  16
$$

IDZ016-017-241300-
SOUTHCENTRAL IDAHO


CITY           SKY/WX    TMP DP  RH WIND       PRES   REMARKS
BURLEY         CLOUDY    25  15  66 W21       29.94R WCI  11
JEROME           N/A    N/A N/A N/A MISG      29.94R
TWIN FALLS     CLEAR     19  11  70 SW18G26   29.96R WCI   4
$$

IDZ019>023-241300-
SOUTHEAST IDAHO


CITY           SKY/WX    TMP DP  RH WIND       PRES   REMARKS
IDAHO FALLS    LGT SNOW  21  19  92 S18       29.87R FOG     WCI   6
POCATELLO      LGT SNOW  21  19  92 SW23      29.93R VSB 3/4 WCI   5
REXBURG        LGT SNOW  21  18  88 S9G23     29.86R FOG     WCI  11
$$

IDZ006-010-011-018-031-032-241300-
CENTRAL IDAHO MOUNTAINS


CITY           SKY/WX    TMP DP  RH WIND       PRES   REMARKS
MCCALL         CLOUDY    18   7  62 N12       29.91R WCI   5
HAILEY         LGT SNOW  21  21 100 SE6       29.83R WCI  14
STANLEY          N/A     14  11  87 N5        29.81R WCI   6
SALMON         CLOUDY    27  18  69 CALM      29.90R
CHALLIS        CLOUDY    21  14  74 N6        29.84R WCI  13
$$

IDZ002-004-006-007-026-241300-
NORTHERN IDAHO


CITY           SKY/WX    TMP DP  RH WIND       PRES   REMARKS
LEWISTON       CLEAR     25  20  81 CALM      30.15R
LOWELL           N/A     31  28  89 CALM      30.15R
COEUR D`ALENE  CLEAR     14  11  87 CALM      30.09R
MULLAN PASS    CLOUDY    12   9  87 CALM      29.88S
$$




USA.gov is the U.S. government's official web portal to all federal, state and local government web resources and services.